Location: Newark
(13.8117°N, 3.6025°W)
Time: 18:57:56
(UTC+00:00)

Explorer 11/Cluster Stage 4 - Pass Details

Date: 28 August 2019
Orbit: 467 x 1260 km, 28.8° (Epoch: 21 September)

Event Time Altitude Azimuth Distance (km) Brightness Sun altitude
Rises 04:58:48 0° 218° (SW) 2,943 - -16.0°
Reaches altitude 10° 05:01:10 10° 208° (SSW) 2,148 - -15.4°
Exits shadow 05:01:23 11° 206° (SSW) 2,080 8.4 -15.4°
Maximum altitude 05:05:41 32° 145° (SE) 1,355 8.0 -14.3°
Drops below altitude 10° 05:11:11 10° 84° (E) 2,643 10.7 -13.0°
Sets 05:14:24 0° 75° (ENE) 3,736 12.2 -12.3°
